DateTimeUTC,F1_A11,F1_S11,BsB_S11,BsG_S11,BsR_S11,BbsB_S11,BbsG_S11,BbsR_S11,BaB_A11,BaG_A11,BaR_A11,Tu_S11,T_S11,Uu_S11,U_S11,P_S11,T1_A11
2021-03-02T22:00:00Z,00000200,21000000,,,,,,,0000.10,0000.04,0000.23,16.5,23.7,,00.0,0656.9,30.9
2021-03-02T22:01:00Z,00000200,21000000,,,,,,,0000.01,0000.29,0000.02,16.5,23.8,,00.0,0656.9,30.8
2021-03-02T22:02:00Z,00000200,21000000,,,,,,,-000.00,-000.02,0000.03,16.5,23.8,,00.0,0656.9,30.8
2021-03-02T22:03:00Z,00000200,61000000,,,,,,,0000.51,0000.02,0000.35,16.5,23.8,,00.0,0656.9,30.8
2021-03-02T22:04:00Z,00000200,41000000,0001.41,0000.68,0000.68,0000.56,0000.04,0000.20,0000.54,0001.15,0000.00,16.5,23.6,,00.0,0657.7,30.8
2021-03-02T22:05:00Z,00000200,01000000,0001.19,0000.91,0000.88,0000.46,0000.22,0000.22,0000.43,0000.12,0000.59,16.5,23.5,,00.0,0657.8,30.8
2021-03-02T22:06:00Z,00000200,01000000,0001.44,0000.61,0000.62,-000.12,0000.22,0000.07,0000.29,0000.10,0000.19,16.4,23.4,,00.0,0657.8,30.8
2021-03-02T22:07:00Z,00000200,01000000,0001.57,0000.56,0000.28,0000.43,0000.05,-000.04,0000.70,0000.77,0000.35,16.4,23.4,,00.0,0657.8,30.8
2021-03-02T22:08:00Z,00000200,01000000,0000.93,0001.19,0000.45,0000.79,0000.25,-000.15,0000.49,0000.30,0000.34,16.3,23.4,,00.0,0657.8,30.8
2021-03-02T22:09:00Z,00000200,01000000,0001.74,0000.97,0000.34,0000.19,0000.18,-000.20,0000.67,0000.52,0000.42,16.2,23.3,,00.0,0657.7,30.8
2021-03-02T22:10:00Z,00000200,01000000,0001.52,0000.98,0000.59,0000.12,0000.13,0000.18,0000.46,0000.28,-000.19,16.2,23.3,,00.0,0657.7,30.7
2021-03-02T22:11:00Z,00000200,01000000,0001.50,0000.90,0000.98,0001.05,0000.24,0000.38,0000.17,0000.32,0000.38,16.1,23.2,,00.0,0657.7,30.7
2021-03-02T22:12:00Z,00000200,01000000,0001.62,0000.91,0000.51,0000.42,0000.26,0000.17,0000.28,-000.10,0000.36,16.1,23.2,,00.0,0657.7,30.7
2021-03-02T22:13:00Z,00000200,01000000,0001.34,0000.82,0000.33,0000.04,0000.06,-000.14,0000.29,0000.60,0000.54,16.1,23.2,,00.0,0657.7,30.7
2021-03-02T22:14:00Z,00000200,01000000,0001.81,0000.84,0000.72,0000.34,0000.08,0000.13,0000.68,0000.39,0000.25,16.1,23.1,,00.0,0657.7,30.7
2021-03-02T22:15:00Z,00000200,01000000,0001.04,0000.75,0000.80,0000.29,0000.26,0000.11,0000.59,0000.15,0000.55,16.1,23.2,,00.0,0657.7,30.7
2021-03-02T22:16:00Z,00000200,01000000,0000.67,0000.74,0000.64,0000.14,0000.38,0000.01,0000.08,0000.67,-000.16,16.1,23.2,,00.0,0657.7,30.7
2021-03-02T22:17:00Z,00000200,01000000,0001.48,0000.82,0000.55,-000.01,0000.16,-000.11,0001.07,0000.77,0000.69,16.2,23.2,,00.0,0657.7,30.7
2021-03-02T22:18:00Z,00000200,01000000,0002.02,0000.73,0000.79,0000.59,-000.02,-000.06,0000.29,0000.47,0000.29,16.2,23.2,,00.0,0657.7,30.8
2021-03-02T22:19:00Z,00000200,01000000,0001.95,0001.00,0000.37,0000.15,0000.22,0000.01,0000.28,0000.30,0000.11,16.3,23.2,,00.0,0657.7,30.8
2021-03-02T22:20:00Z,00000200,01000000,0000.92,0000.60,0000.56,0000.36,0000.10,0000.14,0000.74,0000.43,0000.62,16.4,23.3,,00.0,0657.7,30.8
2021-03-02T22:21:00Z,00000200,01000000,0001.28,0001.05,0000.56,0000.42,0000.22,0000.09,0000.38,0000.27,-000.28,16.4,23.3,,00.0,0657.7,30.8
2021-03-02T22:22:00Z,00000200,01000000,0000.91,0000.72,0000.57,0000.16,0000.10,0000.11,0000.42,0000.50,0000.68,16.5,23.3,,00.0,0657.8,30.8
2021-03-02T22:23:00Z,00000200,01000000,0001.28,0000.83,0000.39,0000.28,0000.24,-000.06,0000.56,0000.64,0000.43,16.5,23.4,,00.0,0657.8,30.8
2021-03-02T22:24:00Z,00000200,01000000,0001.35,0000.65,0000.61,0000.21,0000.21,0000.26,0000.42,0000.11,0000.12,16.5,23.4,,00.0,0657.8,30.8
2021-03-02T22:25:00Z,00000200,01000000,0000.64,0000.81,0000.56,0000.37,0000.00,0000.16,0000.70,0000.69,0000.65,16.6,23.4,,00.0,0657.8,30.8
2021-03-02T22:26:00Z,00000200,01000000,0001.54,0001.01,0000.64,0000.16,0000.23,-000.06,0000.20,0000.62,0000.21,16.6,23.4,,00.0,0657.9,30.8
2021-03-02T22:27:00Z,00000200,01000000,0001.04,0000.91,0000.67,0000.46,0000.18,-000.02,0000.41,0000.29,0000.47,16.7,23.5,,00.0,0657.9,30.8
2021-03-02T22:28:00Z,00000200,01000000,0000.82,0000.57,0000.61,0000.48,0000.25,-000.03,0000.43,0000.28,0000.18,16.7,23.5,,00.0,0657.9,30.8
2021-03-02T22:29:00Z,00000200,01000000,0000.76,0001.10,0000.70,0000.47,0000.47,0000.20,0000.63,0000.61,0000.22,16.8,23.5,,00.0,0657.9,30.8
2021-03-02T22:30:00Z,00000200,01000000,0001.32,0000.81,0000.46,0000.15,0000.03,0000.11,0000.35,0000.33,0000.36,16.8,23.5,,00.0,0657.9,30.8
2021-03-02T22:31:00Z,00000200,01000000,0000.64,0000.69,0000.69,0000.68,0000.33,0000.05,0000.50,0000.68,0000.27,16.8,23.6,,00.0,0657.9,30.8
2021-03-02T22:32:00Z,00000200,01000000,0001.61,0000.86,0000.67,0000.65,0000.20,-000.11,0000.71,0000.46,0000.40,16.8,23.5,,00.0,0657.9,30.8
2021-03-02T22:33:00Z,00000200,01000000,0002.21,0000.86,0000.63,0000.50,0000.03,-000.06,0000.22,0000.25,0000.07,16.7,23.5,,00.0,0657.9,30.8
2021-03-02T22:34:00Z,00000200,01000000,0001.04,0000.91,0000.79,0000.32,0000.00,0000.16,0000.56,0000.39,0000.56,16.7,23.5,,00.0,0658.0,30.8
2021-03-02T22:35:00Z,00000200,01000000,0001.33,0000.68,0000.45,0000.59,0000.19,0000.30,0000.09,0000.43,0000.11,16.6,23.5,,00.0,0658.0,30.8
2021-03-02T22:36:00Z,00000200,01000000,0001.05,0000.74,0000.66,0000.81,0000.30,0000.29,0000.62,0000.46,0000.55,16.5,23.4,,00.0,0658.0,30.8
2021-03-02T22:37:00Z,00000200,01000000,0001.44,0000.96,0000.46,0000.60,0000.29,0000.27,0000.44,0000.32,-000.06,16.5,23.4,,00.0,0658.0,30.8
2021-03-02T22:38:00Z,00000200,01000000,0001.26,0000.84,0000.61,0000.11,0000.14,0000.09,0000.68,0000.44,0000.22,16.4,23.4,,00.0,0658.0,30.8
2021-03-02T22:39:00Z,00000200,01000000,0001.23,0000.66,0000.37,0000.12,0000.11,-000.11,0000.14,0000.40,0000.03,16.4,23.3,,00.0,0658.0,30.8
2021-03-02T22:40:00Z,00000200,01000000,0001.02,0000.89,0000.49,0000.50,0000.15,0000.10,0000.42,-000.08,0000.35,16.3,23.3,,00.0,0658.0,30.8
2021-03-02T22:41:00Z,00000200,01000000,0001.32,0000.63,0000.18,0000.83,0000.22,0000.06,0000.25,0000.38,0000.47,16.2,23.3,,00.0,0658.0,30.7
2021-03-02T22:42:00Z,00000200,01000000,0001.28,0001.08,0000.28,0000.40,0000.27,0000.11,0000.37,0000.11,0000.02,16.2,23.2,,00.0,0658.0,30.7
2021-03-02T22:43:00Z,00000200,01000000,0001.75,0000.65,0000.63,0000.39,0000.08,0000.17,0000.72,0000.74,0000.51,16.2,23.2,,00.0,0657.9,30.7
2021-03-02T22:44:00Z,00000200,01000000,0000.93,0000.69,0000.42,0000.50,0000.18,-000.06,0000.27,0000.30,-000.01,16.2,23.2,,00.0,0657.9,30.7
2021-03-02T22:45:00Z,00000200,01000000,0001.14,0000.55,0000.22,0000.79,0000.23,0000.13,0000.43,0000.11,0000.69,16.2,23.2,,00.0,0657.9,30.8
2021-03-02T22:46:00Z,00000200,01000000,0000.82,0000.79,0000.53,0000.52,0000.15,0000.04,0000.11,0000.19,0000.21,16.3,23.2,,00.0,0657.9,30.8
2021-03-02T22:47:00Z,00000200,01000000,0001.33,0000.63,0000.64,0000.19,-000.01,0000.08,0000.58,0000.83,0000.15,16.3,23.2,,00.0,0657.9,30.8
2021-03-02T22:48:00Z,00000200,01000000,0001.02,0000.86,0000.49,0000.07,0000.22,0000.12,0000.36,0000.36,0000.50,16.4,23.3,,00.0,0657.9,30.8
2021-03-02T22:49:00Z,00000200,01000000,0000.99,0000.42,0000.68,0000.30,0000.17,0000.28,0000.64,0000.59,0000.26,16.4,23.3,,00.0,0657.9,30.8
2021-03-02T22:50:00Z,00000200,01000000,0001.22,0000.51,0000.57,0000.08,-000.05,-000.17,0000.61,0000.53,0000.24,16.5,23.3,,00.0,0657.9,30.8
2021-03-02T22:51:00Z,00000200,01000000,0001.47,0000.44,0000.25,0000.70,0000.11,-000.01,0000.15,0000.19,0000.42,16.5,23.3,,00.0,0657.9,30.8
2021-03-02T22:52:00Z,00000200,01000000,0001.07,0000.55,0000.18,0000.10,0000.17,-000.05,0000.74,0000.61,0000.31,16.6,23.4,,00.0,0657.8,30.8
2021-03-02T22:53:00Z,00000200,01000000,0001.62,0000.84,0000.48,0000.43,0000.24,0000.23,0000.39,0000.52,0000.27,16.6,23.4,,00.0,0657.8,30.8
2021-03-02T22:54:00Z,00000200,01000000,0001.40,0000.87,0000.56,0000.17,-000.00,0000.02,0000.41,-000.05,0000.40,16.7,23.5,,00.0,0657.8,30.8
2021-03-02T22:55:00Z,00000200,01000000,0001.02,0000.44,0000.66,0000.07,0000.04,0000.39,0000.53,0000.87,0000.16,16.7,23.5,,00.0,0657.8,30.8
2021-03-02T22:56:00Z,00000200,01000000,0001.25,0000.69,0000.29,0000.55,0000.25,0000.08,0000.39,-000.04,0000.21,16.8,23.5,,00.0,0657.7,30.8
2021-03-02T22:57:00Z,00000200,41000000,,,,,,,-000.62,-000.08,-000.36,16.9,23.5,,00.0,0657.8,30.8
2021-03-02T22:58:00Z,00000200,61010000,,,,,,,0000.76,0000.24,0000.17,16.6,23.7,,00.0,0656.8,30.8
2021-03-02T22:59:00Z,00000200,21000000,,,,,,,0000.06,0000.51,0000.36,16.6,23.8,,00.0,0656.8,30.8
